sat.trackr.live / text

‹ back to catalog

AGILA

NORAD 62456 · 2024-252C

PAYLOAD ACTIVE UNKNOWN

§ Identity

Operator
Country
RP
Launch date
2024-12-29
Launch site
AFETR
Launch vehicle
Mass (kg)
RCS (m²)

Purposes: comms

External: N2YO · Heavens-Above · Gunter

§ Orbital elements

Epoch: 2026-09-19T21:06:57.472704Z

Period
1,436.09 min
Inclination
0.0190°
Eccentricity
0.0001245
Mean motion
1.00272459 rev/d
Perigee alt
35,781.2 km
Apogee alt
35,791.7 km
Semi-major
42,164.5 km
B*
0.0000e+0
RAAN
152.8123°
Arg perigee
35.5150°
Mean anomaly
279.3643°
Rev number
611

§ Raw data

AGILA1 62456U 24252C   26262.87983186 -.00000186  00000+0  00000+0 0  99902 62456   0.0190 152.8123 0001245  35.5150 279.3643  1.00272459  6110

JSON: /api/v1/satellites/62456 · /tle

For live sub-satellite position, see the globe view (requires WebGL).

§ Visibility from observer

Set your observer location to see the next 7 days of passes ≥ 10°. The values pass through the URL so the page stays shareable.

No JS? Fill the form by hand. The geolocation button needs JavaScript.